Concordia, KS

10:07 PM CDT on October 18, 2019 (GMT -0500)
Blosser Municipal

Weather History for KCNK - September, 2019

Change the Weather History Date:

Monday, September 16, 2019

  Actual Average Record
Temperature  
Mean Temperature 84 °F 68 °F  
Max Temperature 94 °F 80 °F 104 °F (1895)
Min Temperature 73 °F 56 °F 36 °F (1903)
Degree Days  
Heating Degree Days 0 2  
Month to date heating degree days 0 18  
Since 1 July heating degree days 0 21  
Cooling Degree Days 19 5  
Month to date cooling degree days 214 114  
Year to date cooling degree days 1491 1280  
Growing Degree Days 33 (Base 50)    
Moisture  
Dew Point 65 °F    
Average Humidity 56    
Maximum Humidity 73    
Minimum Humidity 38    
Precipitation  
Precipitation 0.00 in 0.10 in 1.44 in (1968)
Month to date precipitation 0.02 1.56  
Year to date precipitation 28.86 22.66  
Snow  
Snow 0.00 in 0.00 in 0.00 in ()
Month to date snowfall 0.0 0.0  
Year to date snowfall 32.3 13.7  
Since 1 July snowfall 0.0 0.0  
Snow Depth 0.00 in    
Sea Level Pressure  
Sea Level Pressure 29.95 in    
Wind  
Wind Speed 15 mph (South)    
Max Wind Speed 21 mph    
Max Gust Speed 30 mph    
Visibility 10 miles    
Events      
T = Trace of Precipitation, MM = Missing Value Source: NWS Daily Summary

Daily Weather History Graph

Daily Weather History Graph

Search for Another Location

Airport or City:

Astronomy

Sep. 16, 2019 Rise Set
Actual Time 7:12 AM CDT 7:37 PM CDT
Civil Twilight 6:45 AM CDT 8:04 PM CDT
Nautical Twilight 6:13 AM CDT 8:36 PM CDT
Astronomical Twilight 5:41 AM CDT 9:08 PM CDT
Moon 9:13 PM CDT (9/16) 9:20 AM CDT (9/16)
Length of Visible Light 13h 19m
Length of Day
12h 25m
Waning Gibbous, 94% of the Moon is Illuminated
Sep 16
Waning Gibbous
Sep 21
Last Quarter
Sep 28
New
Oct 5
First Quarter
Oct 13
Full

Hourly Weather History & Observations

Time (CDT) Temp. Heat Index Dew Point Humidity Pressure Visibility Wind Dir Wind Speed Gust Speed Precip Events Conditions
12:55 AM 77.0 °F - 64.0 °F 64% 29.96 in 10.0 mi South 16.1 mph - N/A   Clear
1:55 AM 75.9 °F - 64.0 °F 67% 29.96 in 10.0 mi South 15.0 mph - N/A   Clear
2:55 AM 75.0 °F - 63.0 °F 66% 29.96 in 10.0 mi South 15.0 mph - N/A   Clear
3:55 AM 73.9 °F - 63.0 °F 68% 29.97 in 10.0 mi South 15.0 mph - N/A   Clear
4:55 AM 73.0 °F - 63.0 °F 71% 29.97 in 10.0 mi South 12.7 mph - N/A   Clear
5:55 AM 73.0 °F - 63.0 °F 71% 29.97 in 10.0 mi South 12.7 mph - N/A   Clear
6:55 AM 73.0 °F - 64.0 °F 73% 29.99 in 10.0 mi South 13.8 mph - N/A   Clear
7:55 AM 73.9 °F - 64.0 °F 71% 30.00 in 10.0 mi South 15.0 mph - N/A   Scattered Clouds
8:55 AM 77.0 °F - 64.9 °F 66% 30.01 in 10.0 mi South 15.0 mph - N/A   Partly Cloudy
9:55 AM 82.0 °F 84.1 °F 66.0 °F 58% 30.01 in 10.0 mi SSW 16.1 mph 26.5 mph N/A   Partly Cloudy
10:55 AM 84.9 °F 87.6 °F 66.9 °F 55% 30.00 in 10.0 mi SSW 16.1 mph - N/A   Clear
11:55 AM 88.0 °F 90.7 °F 66.9 °F 49% 29.99 in 10.0 mi South 16.1 mph 23.0 mph N/A   Partly Cloudy
12:55 PM 91.9 °F 94.1 °F 64.9 °F 41% 29.97 in 10.0 mi South 18.4 mph - N/A   Clear
1:55 PM 91.9 °F 94.5 °F 66.0 °F 42% 29.94 in 10.0 mi South 17.3 mph 25.3 mph N/A   Clear
2:55 PM 91.0 °F 93.0 °F 64.9 °F 42% 29.92 in 10.0 mi South 12.7 mph 21.9 mph N/A   Clear
3:55 PM 91.9 °F 94.1 °F 64.9 °F 41% 29.91 in 10.0 mi South 18.4 mph - N/A   Clear
4:55 PM 91.9 °F 92.9 °F 63.0 °F 38% 29.89 in 10.0 mi South 15.0 mph 27.6 mph N/A   Partly Cloudy
5:55 PM 90.0 °F 90.3 °F 62.1 °F 39% 29.89 in 10.0 mi South 13.8 mph 25.3 mph N/A   Clear
6:55 PM 86.0 °F 87.3 °F 64.0 °F 48% 29.89 in 10.0 mi SSE 9.2 mph - N/A   Clear
7:55 PM 82.9 °F 84.6 °F 64.9 °F 54% 29.89 in 10.0 mi SSE 11.5 mph - N/A   Clear
8:55 PM 82.0 °F 84.1 °F 66.0 °F 58% 29.90 in 10.0 mi SSE 13.8 mph - N/A   Clear
9:55 PM 82.0 °F 84.1 °F 66.0 °F 58% 29.91 in 10.0 mi SSE 16.1 mph 25.3 mph N/A   Clear
10:55 PM 80.1 °F 82.1 °F 66.0 °F 62% 29.92 in 10.0 mi South 16.1 mph 25.3 mph N/A   Clear
11:55 PM 78.1 °F - 66.9 °F 68% 29.92 in 10.0 mi SSE 13.8 mph - N/A   Clear